QPF
0.00 0.00 0.00 0.00 0.00 0.00 0.00 0.00 0.00 0.00 0.00 0.00 0.00 0.00 0.00 0.00 0.00 0.00 0.00 0.00 0.00 0.00 0.00 0.00 0.00 0.00 0.00 0.00 0.00 0.00 0.00 0.00 0.00 0.00 0.00 0.00 0.00 0.00 0.00 0.00 0.01 0.01 0.01
0.00 0.00 0.00 0.00 0.00 0.00 0.00 0.00 0.00 0.00 0.00 0.00 0.00 0.00 0.00 0.00 0.00 0.00 0.00 0.00 0.00 0.00 0.00 0.00 0.00 0.00 0.00 0.00 0.00 0.00 0.00 0.00 0.00 0.00 0.00 0.00 0.00 0.00 0.00 0.00 0.00 0.01 0.01
0.00 0.00 0.00 0.00 0.00 0.00 0.00 0.00 0.00 0.00 0.00 0.00 0.00 0.00 0.00 0.00 0.00 0.00 0.00 0.00 0.00 0.00 0.00 0.00 0.00 0.00 0.00 0.00 0.00 0.00 0.00 0.00 0.00 0.00 0.00 0.00 0.00 0.00 0.00 0.00 0.00 0.01 0.01
0.00 0.00 0.00 0.00 0.00 0.00 0.00 0.00 0.00 0.00 0.00 0.00 0.00 0.00 0.00 0.00 0.00 0.00 0.00 0.00 0.00 0.00 0.00 0.00 0.00 0.00 0.00 0.00 0.00 0.00 0.00 0.00 0.00 0.00 0.00 0.00 0.00 0.00 0.00 0.00 0.00 0.01 0.01
0.00 0.00 0.00 0.00 0.00 0.00 0.00 0.00 0.00 0.00 0.00 0.00 0.00 0.00 0.00 0.00 0.00 0.00 0.00 0.00 0.00 0.00 0.00 0.00 0.00 0.00 0.00 0.00 0.00 0.00 0.00 0.00 0.00 0.00 0.00 0.00 0.00 0.00 0.00 0.00 0.01 0.01 0.01
0.00 0.00 0.00 0.00 0.00 0.00 0.00 0.00 0.00 0.00 0.00 0.00 0.00 0.00 0.00 0.00 0.00 0.00 0.00 0.00 0.00 0.00 0.00 0.00 0.00 0.00 0.00 0.00 0.00 0.00 0.00 0.00 0.00 0.00 0.00 0.00 0.00 0.00 0.00 0.01 0.01 0.01 0.01
0.00 0.00 0.00 0.00 0.00 0.00 0.00 0.00 0.00 0.00 0.00 0.00 0.00 0.00 0.00 0.00 0.00 0.00 0.00 0.00 0.00 0.00 0.00 0.00 0.00 0.00 0.00 0.00 0.00 0.00 0.00 0.00 0.00 0.00 0.00 0.00 0.00 0.00 0.00 0.01 0.01 0.01 0.01
0.00 0.00 0.00 0.00 0.00 0.00 0.00 0.00 0.00 0.00 0.00 0.00 0.00 0.00 0.00 0.00 0.00 0.00 0.00 0.00 0.00 0.00 0.00 0.00 0.00 0.00 0.00 0.00 0.00 0.00 0.00 0.00 0.00 0.00 0.00 0.00 0.00 0.00 0.01 0.01 0.01 0.01 0.01
0.00 0.00 0.00 0.00 0.00 0.00 0.00 0.00 0.00 0.00 0.00 0.00 0.00 0.00 0.00 0.00 0.00 0.00 0.00 0.00 0.00 0.00 0.00 0.00 0.00 0.00 0.00 0.00 0.00 0.00 0.00 0.00 0.00 0.00 0.00 0.00 0.00 0.00 0.01 0.01 0.01 0.01 0.01
0.00 0.00 0.00 0.00 0.00 0.00 0.00 0.00 0.00 0.00 0.00 0.00 0.00 0.00 0.00 0.00 0.00 0.00 0.00 0.00 0.00 0.00 0.00 0.00 0.00 0.00 0.00 0.00 0.00 0.00 0.00 0.00 0.00 0.00 0.00 0.00 0.00 0.00 0.01 0.01 0.01 0.01 0.01
0.00 0.00 0.00 0.00 0.00 0.00 0.00 0.00 0.00 0.00 0.00 0.00 0.00 0.00 0.00 0.00 0.00 0.00 0.00 0.00 0.00 0.00 0.00 0.00 0.00 0.00 0.00 0.00 0.00 0.00 0.00 0.00 0.00 0.00 0.00 0.00 0.00 0.00 0.01 0.01 0.01 0.01 0.01
0.00 0.00 0.00 0.00 0.00 0.00 0.00 0.00 0.00 0.00 0.00 0.00 0.00 0.00 0.00 0.00 0.00 0.00 0.00 0.00 0.00 0.00 0.00 0.00 0.00 0.00 0.00 0.00 0.00 0.00 0.00 0.00 0.00 0.00 0.00 0.00 0.00 0.00 0.01 0.01 0.01 0.01 0.02
0.00 0.00 0.00 0.00 0.00 0.00 0.00 0.00 0.00 0.00 0.00 0.00 0.00 0.00 0.00 0.00 0.00 0.01 0.01 0.00 0.00 0.00 0.00 0.00 0.00 0.00 0.00 0.00 0.00 0.00 0.00 0.00 0.00 0.00 0.00 0.00 0.00 0.00 0.01 0.01 0.01 0.01 0.02
0.00 0.00 0.00 0.00 0.00 0.00 0.00 0.00 0.00 0.00 0.00 0.00 0.00 0.00 0.00 0.01 0.01 0.01 0.00 0.00 0.00 0.00 0.00 0.00 0.00 0.00 0.00 0.00 0.00 0.00 0.00 0.00 0.00 0.00 0.00 0.00 0.00 0.00 0.01 0.01 0.01 0.01 0.01
0.00 0.00 0.00 0.00 0.00 0.00 0.00 0.00 0.00 0.01 0.01 0.01 0.01 0.01 0.01 0.01 0.00 0.00 0.00 0.00 0.00 0.00 0.00 0.00 0.00 0.00 0.00 0.00 0.00 0.00 0.00 0.00 0.00 0.00 0.00 0.00 0.00 0.00 0.00 0.01 0.01 0.01 0.01
0.00 0.00 0.00 0.00 0.00 0.00 0.00 0.00 0.01 0.01 0.01 0.01 0.01 0.01 0.01 0.00 0.00 0.00 0.00 0.00 0.00 0.00 0.00 0.00 0.00 0.00 0.00 0.00 0.00 0.00 0.00 0.00 0.00 0.00 0.00 0.00 0.00 0.00 0.00 0.01 0.01 0.01 0.01
0.00 0.00 0.00 0.00 0.00 0.00 0.00 0.01 0.01 0.01 0.01 0.01 0.00 0.00 0.00 0.00 0.00 0.00 0.00 0.00 0.00 0.00 0.00 0.00 0.00 0.00 0.00 0.00 0.00 0.00 0.00 0.00 0.00 0.00 0.00 0.00 0.00 0.00 0.00 0.01 0.01 0.01 0.02
0.00 0.00 0.00 0.00 0.00 0.00 0.00 0.01 0.01 0.00 0.00 0.00 0.00 0.00 0.00 0.00 0.00 0.00 0.00 0.00 0.00 0.00 0.00 0.00 0.00 0.00 0.00 0.00 0.00 0.00 0.00 0.00 0.00 0.00 0.00 0.00 0.00 0.00 0.00 0.00 0.01 0.01 0.02
0.00 0.00 0.00 0.00 0.00 0.00 0.00 0.01 0.01 0.00 0.00 0.00 0.00 0.00 0.00 0.00 0.00 0.00 0.00 0.00 0.00 0.00 0.00 0.00 0.00 0.00 0.00 0.00 0.00 0.00 0.00 0.00 0.00 0.00 0.00 0.00 0.00 0.00 0.00 0.00 0.01 0.01 0.01
0.00 0.00 0.00 0.00 0.00 0.00 0.00 0.00 0.00 0.00 0.00 0.00 0.00 0.00 0.00 0.00 0.00 0.00 0.00 0.00 0.01 0.01 0.01 0.01 0.01 0.00 0.00 0.00 0.00 0.00 0.00 0.00 0.00 0.00 0.00 0.00 0.00 0.00 0.00 0.00 0.00 0.01 0.01
0.00 0.00 0.00 0.00 0.00 0.00 0.00 0.00 0.00 0.01 0.01 0.01 0.00 0.00 0.00 0.00 0.00 0.00 0.01 0.01 0.01 0.01 0.02 0.02 0.02 0.01 0.01 0.01 0.00 0.00 0.00 0.00 0.00 0.00 0.00 0.00 0.00 0.00 0.00 0.00 0.00 0.01 0.01
0.00 0.00 0.00 0.00 0.00 0.00 0.00 0.00 0.00 0.01 0.01 0.01 0.01 0.01 0.01 0.01 0.01 0.01 0.01 0.01 0.02 0.02 0.02 0.02 0.02 0.01 0.01 0.01 0.01 0.00 0.00 0.00 0.00 0.00 0.00 0.00 0.00 0.00 0.00 0.00 0.00 0.01 0.01
0.00 0.00 0.00 0.00 0.00 0.00 0.01 0.01 0.01 0.00 0.01 0.01 0.01 0.01 0.01 0.01 0.01 0.01 0.01 0.02 0.02 0.02 0.02 0.01 0.01 0.02 0.02 0.01 0.01 0.00 0.00 0.00 0.00 0.00 0.00 0.00 0.00 0.00 0.00 0.00 0.00 0.01 0.01
0.00 0.00 0.00 0.00 0.00 0.01 0.01 0.01 0.01 0.00 0.00 0.01 0.01 0.01 0.01 0.01 0.01 0.01 0.01 0.01 0.01 0.01 0.01 0.01 0.01 0.01 0.00 0.00 0.00 0.00 0.00 0.00 0.00 0.00 0.00 0.00 0.00 0.00 0.00 0.00 0.00 0.00 0.00
0.00 0.00 0.00 0.00 0.00 0.01 0.01 0.01 0.01 0.01 0.01 0.01 0.00 0.00 0.00 0.00 0.01 0.01 0.00 0.00 0.00 0.01 0.01 0.01 0.01 0.00 0.00 0.00 0.00 0.00 0.00 0.00 0.00 0.00 0.00 0.00 0.00 0.00 0.00 0.00 0.00 0.00 0.00
0.00 0.00 0.00 0.00 0.00 0.01 0.01 0.01 0.01 0.01 0.01 0.01 0.00 0.00 0.01 0.01 0.01 0.01 0.00 0.01 0.01 0.01 0.01 0.01 0.00 0.00 0.00 0.00 0.00 0.00 0.00 0.00 0.01 0.01 0.00 0.01 0.01 0.00 0.01 0.00 0.00 0.00 0.00
MSLP
1016.75 1017.11 1017.40 1017.63 1017.84 1018.04 1018.25 1018.49 1018.75 1019.04 1019.32 1019.59 1019.82 1020.01 1020.15 1020.25 1020.31 1020.35 1020.38 1020.40 1020.44 1020.47 1020.52 1020.57 1020.62 1020.66 1020.68 1020.68 1020.66 1020.62 1020.56 1020.49 1020.40 1020.30 1020.19 1020.08 1019.95 1019.81 1019.65 1019.47 1019.29 1019.09 1018.89
1016.60 1016.96 1017.27 1017.53 1017.77 1018.01 1018.26 1018.54 1018.84 1019.16 1019.47 1019.77 1020.03 1020.23 1020.39 1020.49 1020.55 1020.58 1020.60 1020.63 1020.67 1020.72 1020.79 1020.86 1020.92 1020.96 1020.98 1020.96 1020.91 1020.83 1020.74 1020.64 1020.55 1020.46 1020.38 1020.30 1020.21 1020.11 1019.99 1019.84 1019.67 1019.48 1019.28
1016.33 1016.72 1017.07 1017.38 1017.67 1017.96 1018.27 1018.59 1018.93 1019.28 1019.63 1019.96 1020.24 1020.46 1020.62 1020.72 1020.78 1020.80 1020.82 1020.84 1020.88 1020.94 1021.02 1021.11 1021.19 1021.24 1021.25 1021.22 1021.14 1021.04 1020.92 1020.80 1020.70 1020.62 1020.56 1020.51 1020.46 1020.39 1020.30 1020.17 1020.00 1019.82 1019.62
1015.99 1016.42 1016.82 1017.19 1017.55 1017.90 1018.26 1018.63 1019.01 1019.40 1019.78 1020.13 1020.43 1020.67 1020.85 1020.96 1021.01 1021.02 1021.02 1021.03 1021.06 1021.12 1021.21 1021.31 1021.39 1021.46 1021.47 1021.44 1021.36 1021.24 1021.10 1020.97 1020.85 1020.77 1020.71 1020.68 1020.65 1020.61 1020.53 1020.41 1020.26 1020.06 1019.85
1015.59 1016.07 1016.53 1016.97 1017.40 1017.81 1018.23 1018.64 1019.05 1019.47 1019.87 1020.25 1020.58 1020.85 1021.05 1021.17 1021.22 1021.23 1021.22 1021.21 1021.22 1021.27 1021.34 1021.44 1021.54 1021.61 1021.64 1021.61 1021.53 1021.40 1021.25 1021.11 1020.98 1020.88 1020.83 1020.79 1020.77 1020.73 1020.66 1020.55 1020.39 1020.19 1019.96
1015.15 1015.67 1016.19 1016.70 1017.19 1017.67 1018.12 1018.57 1019.01 1019.45 1019.87 1020.28 1020.65 1020.95 1021.19 1021.34 1021.41 1021.42 1021.40 1021.37 1021.35 1021.37 1021.43 1021.51 1021.60 1021.68 1021.72 1021.70 1021.63 1021.51 1021.35 1021.20 1021.06 1020.95 1020.88 1020.83 1020.79 1020.75 1020.67 1020.55 1020.39 1020.18 1019.95
1014.65 1015.22 1015.79 1016.36 1016.91 1017.43 1017.92 1018.39 1018.85 1019.30 1019.76 1020.20 1020.61 1020.97 1021.25 1021.45 1021.55 1021.58 1021.55 1021.50 1021.45 1021.44 1021.46 1021.51 1021.59 1021.66 1021.70 1021.69 1021.63 1021.52 1021.38 1021.22 1021.07 1020.95 1020.85 1020.79 1020.73 1020.67 1020.58 1020.45 1020.28 1020.07 1019.83
1014.09 1014.69 1015.31 1015.93 1016.52 1017.07 1017.59 1018.07 1018.55 1019.02 1019.50 1019.98 1020.45 1020.87 1021.22 1021.47 1021.63 1021.68 1021.66 1021.59 1021.51 1021.45 1021.42 1021.43 1021.48 1021.53 1021.57 1021.58 1021.53 1021.44 1021.31 1021.16 1021.01 1020.87 1020.77 1020.68 1020.60 1020.52 1020.42 1020.28 1020.10 1019.89 1019.66
1013.44 1014.08 1014.74 1015.39 1016.01 1016.59 1017.12 1017.62 1018.11 1018.60 1019.11 1019.63 1020.15 1020.64 1021.07 1021.39 1021.61 1021.70 1021.70 1021.62 1021.51 1021.40 1021.32 1021.28 1021.29 1021.31 1021.34 1021.35 1021.32 1021.25 1021.14 1021.01 1020.87 1020.73 1020.61 1020.51 1020.43 1020.33 1020.22 1020.07 1019.90 1019.69 1019.47
1012.72 1013.38 1014.07 1014.75 1015.40 1015.99 1016.54 1017.05 1017.55 1018.06 1018.59 1019.16 1019.74 1020.29 1020.79 1021.20 1021.48 1021.62 1021.65 1021.57 1021.44 1021.29 1021.16 1021.06 1021.02 1021.00 1021.01 1021.01 1021.00 1020.95 1020.87 1020.76 1020.64 1020.52 1020.41 1020.31 1020.22 1020.12 1020.01 1019.87 1019.70 1019.51 1019.30
1011.93 1012.61 1013.33 1014.04 1014.71 1015.32 1015.88 1016.40 1016.91 1017.43 1017.99 1018.59 1019.22 1019.84 1020.40 1020.88 1021.23 1021.43 1021.49 1021.43 1021.29 1021.11 1020.93 1020.78 1020.68 1020.63 1020.61 1020.60 1020.58 1020.55 1020.50 1020.42 1020.33 1020.24 1020.15 1020.07 1019.99 1019.90 1019.79 1019.66 1019.51 1019.32 1019.12
1011.11 1011.81 1012.55 1013.29 1013.98 1014.62 1015.19 1015.73 1016.24 1016.78 1017.35 1017.97 1018.63 1019.29 1019.91 1020.44 1020.86 1021.11 1021.22 1021.19 1021.05 1020.86 1020.65 1020.46 1020.31 1020.22 1020.16 1020.13 1020.11 1020.08 1020.05 1020.01 1019.95 1019.89 1019.83 1019.78 1019.72 1019.65 1019.56 1019.44 1019.30 1019.12 1018.93
1010.28 1011.01 1011.77 1012.53 1013.25 1013.91 1014.50 1015.05 1015.57 1016.11 1016.69 1017.31 1017.98 1018.66 1019.32 1019.90 1020.37 1020.68 1020.83 1020.84 1020.74 1020.55 1020.34 1020.12 1019.94 1019.80 1019.70 1019.64 1019.60 1019.58 1019.55 1019.53 1019.50 1019.47 1019.45 1019.42 1019.39 1019.34 1019.27 1019.17 1019.03 1018.86 1018.67
1009.48 1010.23 1011.01 1011.79 1012.53 1013.21 1013.83 1014.39 1014.92 1015.46 1016.03 1016.64 1017.31 1017.99 1018.66 1019.27 1019.78 1020.14 1020.35 1020.42 1020.36 1020.21 1020.00 1019.78 1019.57 1019.40 1019.26 1019.17 1019.10 1019.06 1019.03 1019.01 1019.00 1019.00 1019.00 1018.99 1018.99 1018.96 1018.90 1018.81 1018.68 1018.51 1018.31
1008.71 1009.47 1010.26 1011.06 1011.82 1012.52 1013.16 1013.74 1014.28 1014.82 1015.37 1015.97 1016.61 1017.28 1017.94 1018.56 1019.10 1019.51 1019.79 1019.92 1019.92 1019.82 1019.65 1019.45 1019.24 1019.04 1018.88 1018.74 1018.64 1018.57 1018.52 1018.49 1018.48 1018.48 1018.49 1018.50 1018.50 1018.48 1018.43 1018.35 1018.22 1018.05 1017.84
1007.96 1008.73 1009.53 1010.33 1011.11 1011.84 1012.50 1013.09 1013.64 1014.18 1014.72 1015.29 1015.90 1016.54 1017.19 1017.81 1018.36 1018.82 1019.16 1019.36 1019.44 1019.41 1019.31 1019.14 1018.94 1018.75 1018.56 1018.39 1018.25 1018.14 1018.05 1018.00 1017.97 1017.95 1017.96 1017.96 1017.96 1017.94 1017.89 1017.79 1017.66 1017.48 1017.27
1007.22 1007.98 1008.79 1009.60 1010.39 1011.13 1011.81 1012.43 1012.99 1013.53 1014.06 1014.60 1015.18 1015.79 1016.41 1017.02 1017.59 1018.08 1018.48 1018.76 1018.92 1018.98 1018.95 1018.84 1018.69 1018.51 1018.31 1018.12 1017.95 1017.80 1017.67 1017.58 1017.52 1017.47 1017.45 1017.43 1017.41 1017.37 1017.30 1017.19 1017.04 1016.85 1016.63
1006.47 1007.23 1008.03 1008.84 1009.64 1010.40 1011.10 1011.74 1012.32 1012.87 1013.39 1013.92 1014.47 1015.04 1015.64 1016.23 1016.80 1017.32 1017.77 1018.13 1018.38 1018.53 1018.59 1018.56 1018.46 1018.31 1018.14 1017.95 1017.75 1017.57 1017.41 1017.28 1017.17 1017.09 1017.03 1016.97 1016.92 1016.84 1016.74 1016.60 1016.43 1016.23 1016.00
1005.71 1006.48 1007.27 1008.08 1008.88 1009.65 1010.38 1011.04 1011.65 1012.20 1012.73 1013.25 1013.78 1014.33 1014.90 1015.47 1016.04 1016.58 1017.07 1017.49 1017.83 1018.07 1018.22 1018.27 1018.25 1018.17 1018.03 1017.85 1017.66 1017.47 1017.28 1017.11 1016.97 1016.84 1016.74 1016.64 1016.53 1016.42 1016.27 1016.11 1015.90 1015.68 1015.43
1004.98 1005.75 1006.54 1007.35 1008.16 1008.94 1009.69 1010.38 1011.01 1011.58 1012.12 1012.64 1013.16 1013.69 1014.23 1014.78 1015.35 1015.89 1016.41 1016.88 1017.29 1017.62 1017.86 1018.01 1018.07 1018.05 1017.97 1017.83 1017.66 1017.47 1017.28 1017.09 1016.92 1016.75 1016.61 1016.46 1016.31 1016.15 1015.96 1015.75 1015.51 1015.26 1014.99
1004.30 1005.08 1005.89 1006.70 1007.52 1008.31 1009.07 1009.78 1010.44 1011.04 1011.60 1012.13 1012.64 1013.15 1013.68 1014.22 1014.76 1015.31 1015.85 1016.36 1016.82 1017.22 1017.54 1017.78 1017.93 1017.99 1017.97 1017.89 1017.76 1017.59 1017.40 1017.21 1017.02 1016.83 1016.64 1016.46 1016.27 1016.06 1015.83 1015.57 1015.30 1015.01 1014.71
1003.71 1004.53 1005.35 1006.18 1007.00 1007.81 1008.59 1009.32 1010.00 1010.62 1011.20 1011.75 1012.27 1012.78 1013.29 1013.81 1014.35 1014.90 1015.44 1015.97 1016.47 1016.92 1017.31 1017.62 1017.85 1017.99 1018.04 1018.02 1017.93 1017.80 1017.63 1017.44 1017.24 1017.04 1016.83 1016.61 1016.39 1016.14 1015.87 1015.57 1015.26 1014.93 1014.59
1003.25 1004.12 1004.97 1005.81 1006.65 1007.46 1008.25 1009.00 1009.70 1010.36 1010.96 1011.53 1012.07 1012.59 1013.10 1013.62 1014.15 1014.69 1015.23 1015.77 1016.29 1016.78 1017.21 1017.58 1017.87 1018.07 1018.19 1018.22 1018.18 1018.08 1017.94 1017.76 1017.57 1017.35 1017.13 1016.89 1016.63 1016.36 1016.05 1015.73 1015.37 1015.00 1014.63
1002.94 1003.86 1004.75 1005.61 1006.46 1007.28 1008.08 1008.84 1009.57 1010.25 1010.89 1011.49 1012.06 1012.61 1013.14 1013.66 1014.19 1014.73 1015.27 1015.82 1016.35 1016.85 1017.31 1017.71 1018.03 1018.27 1018.43 1018.50 1018.50 1018.43 1018.30 1018.14 1017.94 1017.72 1017.49 1017.23 1016.96 1016.66 1016.33 1015.98 1015.60 1015.19 1014.77
1002.77 1003.74 1004.66 1005.55 1006.40 1007.23 1008.04 1008.82 1009.57 1010.29 1010.97 1011.62 1012.23 1012.82 1013.39 1013.94 1014.49 1015.03 1015.57 1016.11 1016.64 1017.14 1017.61 1018.01 1018.35 1018.61 1018.78 1018.87 1018.88 1018.82 1018.70 1018.53 1018.33 1018.11 1017.86 1017.60 1017.31 1016.99 1016.65 1016.27 1015.87 1015.43 1014.98
1002.71 1003.72 1004.67 1005.57 1006.44 1007.27 1008.09 1008.89 1009.68 1010.44 1011.18 1011.88 1012.56 1013.21 1013.82 1014.42 1014.99 1015.56 1016.11 1016.65 1017.17 1017.66 1018.11 1018.50 1018.83 1019.07 1019.24 1019.31 1019.31 1019.24 1019.11 1018.93 1018.72 1018.48 1018.22 1017.94 1017.63 1017.31 1016.95 1016.55 1016.12 1015.67 1015.18
Thickness
5687 5686 5684 5682 5680 5679 5676 5674 5671 5669 5666 5664 5662 5659 5655 5652 5649 5646 5643 5639 5636 5633 5629 5625 5621 5618 5613 5609 5605 5601 5598 5594 5591 5588 5585 5582 5579 5576 5573 5571 5569 5567 5565
5684 5682 5680 5678 5676 5674 5672 5669 5667 5664 5662 5659 5657 5654 5650 5647 5643 5640 5636 5633 5629 5626 5622 5618 5614 5611 5607 5602 5598 5594 5590 5587 5583 5580 5577 5574 5571 5568 5565 5563 5561 5559 5557
5681 5679 5676 5674 5672 5670 5668 5665 5662 5659 5657 5654 5651 5648 5645 5641 5638 5634 5630 5626 5623 5619 5615 5611 5607 5604 5600 5595 5591 5587 5583 5579 5576 5573 5569 5566 5563 5560 5558 5555 5553 5551 5549
5678 5676 5673 5671 5669 5666 5663 5660 5657 5654 5651 5648 5644 5642 5639 5635 5632 5628 5624 5620 5616 5612 5608 5604 5601 5596 5592 5588 5584 5580 5576 5572 5569 5565 5562 5559 5556 5553 5550 5547 5545 5543 5541
5676 5673 5670 5668 5665 5662 5659 5657 5652 5650 5645 5642 5639 5635 5633 5629 5626 5622 5618 5614 5610 5606 5602 5598 5594 5589 5585 5581 5577 5573 5569 5565 5562 5558 5555 5551 5548 5545 5542 5539 5537 5535 5533
5673 5671 5668 5665 5662 5658 5655 5652 5648 5645 5641 5637 5634 5629 5625 5623 5620 5616 5613 5609 5604 5600 5596 5592 5587 5583 5578 5574 5570 5566 5562 5558 5554 5551 5547 5544 5540 5537 5534 5531 5529 5527 5524
5671 5669 5666 5662 5659 5656 5652 5649 5644 5640 5635 5631 5626 5620 5618 5616 5613 5611 5607 5603 5599 5595 5590 5586 5581 5576 5572 5567 5563 5559 5555 5551 5547 5544 5540 5536 5533 5529 5526 5523 5520 5518 5515
5670 5667 5664 5660 5657 5653 5649 5646 5642 5635 5631 5627 5622 5614 5610 5607 5607 5605 5601 5597 5593 5589 5584 5580 5575 5571 5566 5561 5556 5552 5547 5544 5540 5536 5532 5528 5525 5521 5517 5514 5511 5508 5505
5669 5666 5662 5659 5655 5651 5647 5644 5640 5634 5627 5622 5620 5613 5605 5602 5599 5598 5595 5591 5587 5583 5579 5575 5570 5565 5560 5555 5550 5545 5540 5536 5532 5528 5524 5520 5516 5512 5508 5504 5501 5497 5494
5667 5664 5661 5657 5653 5650 5646 5642 5638 5633 5627 5619 5614 5611 5607 5602 5595 5591 5588 5585 5582 5578 5574 5569 5564 5559 5554 5549 5543 5538 5533 5528 5524 5520 5515 5511 5507 5502 5498 5494 5489 5485 5481
5664 5662 5659 5655 5652 5648 5644 5640 5635 5630 5626 5620 5613 5607 5601 5595 5591 5586 5583 5579 5575 5573 5569 5564 5559 5553 5548 5543 5537 5531 5526 5521 5516 5511 5506 5501 5497 5492 5487 5482 5478 5473 5469
5662 5660 5657 5654 5650 5647 5642 5638 5633 5628 5623 5618 5612 5607 5601 5594 5588 5581 5576 5572 5568 5566 5563 5558 5553 5547 5542 5536 5530 5525 5518 5513 5507 5502 5497 5491 5486 5481 5475 5470 5465 5460 5456
5661 5659 5657 5653 5649 5646 5641 5636 5631 5625 5620 5615 5610 5605 5600 5595 5589 5581 5574 5568 5562 5558 5555 5551 5547 5541 5535 5529 5524 5517 5511 5505 5499 5493 5487 5481 5475 5469 5463 5458 5453 5447 5442
5663 5659 5655 5652 5648 5643 5638 5633 5628 5623 5618 5612 5607 5602 5596 5591 5585 5579 5572 5563 5555 5550 5546 5544 5540 5535 5529 5523 5517 5510 5503 5496 5490 5483 5477 5470 5464 5458 5452 5446 5440 5434 5428
5660 5656 5652 5649 5644 5640 5635 5630 5625 5620 5614 5609 5603 5597 5592 5586 5580 5575 5568 5561 5552 5544 5540 5537 5533 5529 5523 5516 5509 5502 5495 5488 5480 5473 5467 5460 5454 5447 5440 5434 5427 5421 5415
5657 5653 5649 5645 5641 5637 5632 5627 5622 5616 5610 5605 5599 5593 5587 5581 5575 5569 5563 5556 5550 5542 5535 5531 5526 5520 5514 5508 5501 5493 5486 5478 5470 5463 5457 5450 5443 5436 5429 5422 5415 5409 5403
5654 5651 5647 5642 5638 5633 5628 5623 5618 5612 5607 5601 5595 5589 5583 5576 5570 5563 5556 5550 5542 5536 5529 5524 5517 5512 5505 5498 5491 5484 5476 5468 5460 5453 5446 5439 5432 5425 5417 5411 5404 5397 5392
5651 5648 5643 5639 5635 5630 5625 5620 5615 5609 5603 5597 5591 5584 5578 5571 5564 5557 5550 5543 5537 5530 5523 5516 5509 5502 5496 5489 5482 5474 5466 5458 5450 5443 5436 5428 5421 5413 5406 5399 5392 5386 5380
5647 5643 5639 5635 5631 5627 5622 5617 5611 5605 5600 5593 5587 5580 5573 5566 5558 5551 5544 5538 5530 5523 5516 5508 5500 5493 5486 5479 5471 5463 5455 5447 5439 5432 5424 5416 5409 5402 5394 5388 5381 5374 5368
5643 5639 5635 5631 5627 5622 5617 5612 5607 5601 5595 5588 5582 5576 5570 5563 5556 5548 5540 5532 5524 5515 5507 5499 5492 5484 5476 5469 5461 5452 5445 5436 5429 5421 5412 5404 5397 5390 5382 5376 5371 5364 5357
5638 5634 5630 5625 5621 5616 5612 5607 5601 5595 5589 5582 5576 5571 5565 5558 5552 5544 5536 5527 5518 5509 5500 5492 5484 5475 5467 5459 5451 5442 5433 5425 5418 5410 5401 5393 5387 5380 5372 5365 5359 5353 5347
5631 5627 5624 5620 5616 5612 5608 5602 5597 5590 5583 5577 5571 5564 5558 5551 5545 5538 5531 5523 5515 5505 5495 5485 5477 5468 5460 5452 5442 5432 5422 5413 5406 5401 5390 5384 5377 5369 5362 5356 5349 5343 5338
5625 5621 5618 5614 5611 5607 5602 5596 5590 5584 5578 5571 5565 5558 5551 5545 5538 5531 5523 5515 5507 5500 5492 5482 5472 5463 5454 5445 5435 5424 5412 5401 5393 5388 5380 5373 5366 5359 5353 5346 5340 5334 5329
5618 5615 5612 5608 5605 5600 5595 5590 5583 5577 5571 5565 5559 5553 5545 5538 5531 5523 5515 5506 5498 5491 5484 5476 5467 5457 5447 5437 5427 5416 5405 5394 5385 5377 5369 5361 5356 5350 5345 5338 5331 5326 5320
5611 5609 5605 5602 5598 5593 5588 5582 5575 5568 5562 5556 5551 5545 5539 5532 5525 5517 5508 5499 5490 5482 5475 5467 5458 5448 5438 5429 5418 5407 5395 5385 5376 5369 5360 5352 5347 5341 5336 5330 5323 5317 5311
5604 5601 5597 5595 5591 5586 5580 5575 5569 5562 5555 5548 5542 5537 5531 5525 5518 5509 5501 5492 5483 5474 5466 5457 5447 5437 5428 5418 5409 5399 5388 5377 5367 5359 5353 5343 5336 5330 5327 5323 5316 5310 5305